Rotterdam, Netherlands

12:16 PM CET on December 05, 2016 (GMT +0100)
Rotterdam

Weather History for EHRD - November, 2013

Change the Weather History Date:

Monday, November 11, 2013

  Actual Average Record
Temperature  
Mean Temperature 42 °F -  
Max Temperature 49 °F 49 °F 57 °F (2005)
Min Temperature 35 °F 39 °F 26 °F (2016)
Degree Days  
Heating Degree Days 23    
Moisture  
Dew Point 39 °F    
Average Humidity 83    
Maximum Humidity 100    
Minimum Humidity 57    
Precipitation  
Precipitation 0.02 in - - ()
Sea Level Pressure  
Sea Level Pressure 30.30 in    
Wind  
Wind Speed 7 mph ()    
Max Wind Speed 20 mph    
Max Gust Speed 32 mph    
Visibility 6.6 miles    
Events      
Averages and records for this station are not official NWS values.
T = Trace of Precipitation, MM = Missing Value Source: Averaged Metar Reports

Daily Weather History Graph

Daily Weather History Graph

Search for Another Location

Airport or City:

Trip Planner

Search our weather history database for the weather conditions in past years. The results will help you decide how hot, cold, wet, or windy it might be!

Date:

Astronomy

Nov. 11, 2013 Rise Set
Actual Time 7:54 AM CET 4:56 PM CET
Civil Twilight 7:18 AM CET 5:33 PM CET
Nautical Twilight 6:37 AM CET 6:14 PM CET
Astronomical Twilight 5:57 AM CET 6:53 PM CET
Moon 2:10 PM CET (11/11) 12:36 AM CET (11/11)
Length of Visible Light 10h 15m
Length of Day
9h 01m
Waxing Gibbous, 63% of the Moon is Illuminated
Nov 11
Waxing Gibbous
Nov 17
Full
Nov 25
Last Quarter
Dec 3
New
Dec 9
First Quarter

Hourly Weather History & Observations

Time (CET) Temp. Windchill Dew Point Humidity Pressure Visibility Wind Dir Wind Speed Gust Speed Precip Events Conditions
12:25 AM 37.4 °F 33.8 °F 35.6 °F 93% 30.24 in 6.2 mi West 4.6 mph - N/A   Unknown
12:55 AM 37.4 °F - 35.6 °F 93% 30.24 in 6.2 mi Variable 2.3 mph - N/A   Unknown
1:00 AM 37 °F - 37 °F 99% 30.26 in 12 mi South 2.2 mph - -   Partly Cloudy
1:25 AM 37.4 °F - 37.4 °F 100% 30.24 in 6.2 mi South 2.3 mph - N/A   Unknown
1:55 AM 35.6 °F 32.8 °F 35.6 °F 100% 30.27 in 5.6 mi SW 3.5 mph - N/A   Mostly Cloudy
2:25 AM 37.4 °F - 37.4 °F 100% 30.27 in 6.2 mi SSW 2.3 mph - N/A   Partly Cloudy
2:55 AM 37.4 °F - 37.4 °F 100% 30.27 in 6.2 mi SSE 2.3 mph - N/A   Unknown
3:25 AM 35.6 °F - 35.6 °F 100% 30.27 in 6.2 mi South 2.3 mph - N/A   Unknown
3:55 AM 35.6 °F - 35.6 °F 100% 30.27 in 6.2 mi SSE 2.3 mph - N/A   Unknown
4:00 AM 36 °F - 35 °F 97% 30.30 in 2 mi South 2.2 mph - -   Mist
4:25 AM 35.6 °F - 35.6 °F 100% 30.27 in 5.6 mi SSE 2.3 mph - N/A   Unknown
4:55 AM 35.6 °F - 35.6 °F 100% 30.30 in 3.1 mi South 2.3 mph - N/A   Partly Cloudy
5:25 AM 35.6 °F 32.8 °F 35.6 °F 100% 30.30 in 5.6 mi South 3.5 mph - N/A   Unknown
5:55 AM 35.6 °F 32.8 °F 35.6 °F 100% 30.30 in 6.2 mi South 3.5 mph - N/A   Scattered Clouds
6:25 AM 37.4 °F 33.8 °F 37.4 °F 100% 30.30 in 6.2 mi South 4.6 mph - N/A   Partly Cloudy
6:55 AM 37.4 °F 33.8 °F 37.4 °F 100% 30.30 in 6.2 mi SSW 4.6 mph - N/A   Unknown
7:00 AM 38 °F - 38 °F 100% 30.32 in 11 mi SSW 4.5 mph - -   Partly Cloudy
7:25 AM 39.2 °F 35.0 °F 39.2 °F 100% 30.30 in 6.2 mi South 5.8 mph - N/A   Unknown
7:55 AM 37.4 °F 32.8 °F 37.4 °F 100% 30.30 in 6.2 mi South 5.8 mph - N/A   Unknown
8:25 AM 39.2 °F 34.2 °F 39.2 °F 100% 30.30 in 6.2 mi South 6.9 mph - N/A   Unknown
8:55 AM 42.8 °F 38.6 °F 42.8 °F 100% 30.33 in 6.2 mi SSW 6.9 mph - N/A   Unknown
9:25 AM 46.4 °F 42.9 °F 42.8 °F 87% 30.33 in 6.2 mi SSW 6.9 mph - N/A   Unknown
9:55 AM 46.4 °F 41.9 °F 42.8 °F 87% 30.33 in 6.2 mi South 9.2 mph - N/A   Unknown
10:00 AM 46 °F - 42 °F 82% 30.36 in 14 mi South 8.9 mph - -  
10:25 AM 46.4 °F 41.9 °F 42.8 °F 87% 30.36 in 6.2 mi South 9.2 mph - N/A   Unknown
10:55 AM 48.2 °F - 42.8 °F 82% 30.33 in 6.2 mi South 10.4 mph - N/A   Unknown
11:25 AM 48.2 °F - 42.8 °F 82% 30.36 in 6.2 mi South 13.8 mph - N/A   Unknown
11:55 AM 48.2 °F - 42.8 °F 82% 30.33 in 6.2 mi SSW 15.0 mph - N/A   Unknown
12:25 PM 48.2 °F - 42.8 °F 82% 30.33 in 6.2 mi South 13.8 mph - N/A   Unknown
12:55 PM 48.2 °F - 41.0 °F 76% 30.33 in 6.2 mi South 15.0 mph - N/A   Unknown
1:00 PM 49 °F - 42 °F 68% 30.35 in 17 mi South 15.7 mph - -   Partly Cloudy
1:25 PM 48.2 °F - 42.8 °F 82% 30.33 in 6.2 mi South 12.7 mph - N/A   Unknown
1:55 PM 50.0 °F - 42.8 °F 76% 30.33 in 6.2 mi South 16.1 mph - N/A   Unknown
2:25 PM 50.0 °F - 41.0 °F 71% 30.33 in 6.2 mi South 15.0 mph - N/A   Unknown
2:55 PM 48.2 °F - 41.0 °F 76% 30.33 in 6.2 mi South 15.0 mph - N/A   Unknown
3:25 PM 48.2 °F - 41.0 °F 76% 30.30 in 6.2 mi South 13.8 mph - N/A   Unknown
3:55 PM 48.2 °F - 41.0 °F 76% 30.30 in 6.2 mi South 13.8 mph - N/A   Unknown
4:00 PM 49 °F - 40 °F 64% 30.31 in 22 mi South 15.7 mph - -   Overcast
4:25 PM 48.2 °F - 39.2 °F 71% 30.30 in 6.2 mi South 16.1 mph - N/A   Unknown
4:55 PM 48.2 °F - 39.2 °F 71% 30.30 in 6.2 mi South 11.5 mph - N/A   Partly Cloudy
5:25 PM 48.2 °F - 39.2 °F 71% 30.30 in 6.2 mi South 15.0 mph - N/A   Unknown
5:55 PM 48.2 °F - 39.2 °F 71% 30.30 in 6.2 mi South 16.1 mph - N/A   Partly Cloudy
6:25 PM 48.2 °F - 39.2 °F 71% 30.30 in 6.2 mi South 16.1 mph - N/A   Unknown
6:55 PM 48.2 °F - 37.4 °F 66% 30.30 in 6.2 mi South 15.0 mph - N/A   Unknown
7:00 PM 48 °F - 38 °F 58% 30.31 in 28 mi South 15.7 mph - -   Partly Cloudy
7:25 PM 48.2 °F - 39.2 °F 71% 30.30 in 6.2 mi South 15.0 mph - N/A   Mostly Cloudy
7:55 PM 48.2 °F - 37.4 °F 66% 30.30 in 6.2 mi South 16.1 mph - N/A   Partly Cloudy
8:25 PM 48.2 °F - 37.4 °F 66% 30.30 in 6.2 mi South 16.1 mph - N/A   Mostly Cloudy
8:55 PM 48.2 °F - 37.4 °F 66% 30.30 in 6.2 mi South 16.1 mph - N/A   Overcast
9:25 PM 48.2 °F - 37.4 °F 66% 30.30 in 6.2 mi South 17.3 mph - N/A   Overcast
9:55 PM 48.2 °F - 37.4 °F 66% 30.30 in 6.2 mi South 16.1 mph - N/A   Overcast
10:00 PM 47 °F - 37 °F 57% 30.30 in 25 mi South 15.7 mph - -   Overcast
10:25 PM 48.2 °F - 37.4 °F 66% 30.27 in 6.2 mi South 17.3 mph - N/A   Overcast
10:55 PM 48.2 °F - 37.4 °F 66% 30.27 in 6.2 mi South 19.6 mph 32.2 mph N/A   Overcast
11:25 PM 46.4 °F 39.5 °F 37.4 °F 71% 30.27 in 6.2 mi South 17.3 mph - N/A   Overcast
11:55 PM 46.4 °F 39.5 °F 37.4 °F 71% 30.27 in 6.2 mi South 17.3 mph - N/A   Overcast